Showing default

GOES 1 (SMS-C), 8366

Orbit data source: Space-Track

GOES 1 (SMS-C), 8366 is a payload satellite owned by NOAA (US) in GEO that was launched on Thu, 16 Oct 1975 UTC via a DELTA 2914 launch vehicle from the Air Force Eastern Test Range (AFETR). Payloads include a variety of satellites, spacecraft, and rockets equipped with specific instruments for various scientific and technological missions. These include communications satellites like Starlink; space stations such as the ISS; scientific satellites like the Hubble; Earth observation satellites from companies like Planet Labs, Umbra, and HawkEye 360; GPS; miniature CubeSats for education and research; and military/defense satellites.

Loading next visibility...
GOES 1 (SMS-C) details
Identifier
8366, 1975-100A
Orbit
GEO
Last TLE update13 hours ago
Origin
Flag of USNOAA (US)
ManufacturerAe Ford WDL
MissionNon-operational Civil Weather
Bus & MotorSMS, SVM-5
Mass~612 kg wet, ~277 kg dry
Launch date (UTC)
1975-10-16 (49 years ago)
Launch vehicle
DELTA 2914
Launch site
Air Force Eastern Test Range (AFETR)
Object type
Payload
Rocket body
Debris
Shape & HBRCyl, 2.6 m
Radar Cross Section5.298 m², Large (>1 m²)

Expand to show TLE details & history

TLE from 13 hours ago
0 GOES 1 (SMS-C)
1 08366U 75100A   24361.27323500 -.00000177  00000-0  00000-0 0  9990
2 08366   5.9788 284.1398 0005099 331.8507 213.0782  1.00295743179671
Epoch: 2024-12-26T06:33Z
Definitive object data (Epoch: 2024-12-26T06:33:27.504Z)
Latitude-0.49117°
Longitude-84.6273°
Altitude35,797.566 km
Speed3.074 km/s
True Right ascension07h 15m 58s
True Declination0° 29' 26"
Sunlit
Object was in daylight at TLE epoch
Visualization TLE readout
Latitude2.35299°
Longitude113.7276°
Altitude35,765.655 km
Speed3.076 km/s
Apparent Right ascension20h 39m 52s
Apparent Declination-3° 34' 07"
Sunlit
Object is in daylight
Visualization observer readout
Local Sidereal Time19:07:17
Azimuth148.359° SSE
Elevation41.602°
Doppler factor1
Orbital elements
Apogee altitude35,802.43 km
Perigee altitude35,759.437 km
Semi-major axis42,159.071 km
Eccentricity0.0005099
Inclination5.9788°
RAAN284.1398°
Arg. of periapsis331.8507°
True anomaly213.04633°
Mean anomaly213.0782°
Eccentric anomaly213.06226°
Mean motion0.25073 °/min
BSTARUnknown
Orbital period1435.81 mins
Loading historical data...
8366 neighbors
Authenticating...
Loading maneuver chart data...
Loading historical data...
Loading historical data...
Loading historical data...
Loading historical data...
Loading historical data...
Loading historical data...
Loading historical data...

GOES 1 (SMS-C) Visibility forecast

Observer location: undefined°, undefined

Span
Click to sort rows by Start time (UTC) header in descending order
Start Az.
Max El. time (UTC)
Max El. Az.
Max El.
End time (UTC)
End Az.
1440 mins2024-12-26 19:44:34.911Z148.37° SSE2024-12-27 00:08:34.911Z145.832° SSE35.369°2024-12-27 19:44:34.911Z148.197° SSE
|